Location: Recife
(8.0585°S, 34.8848°W)
Time: 22:08:37
(UTC-03:00)

Altair - Pass Details

Date: 15 April 2026
Orbit: 1501 x 1682 km, 47.2° (Epoch: 17 May)

Event Time Altitude Azimuth Distance (km) Brightness Sun altitude
Rises 07:52:32 0° 211° (SSW) 4,850 9.7 35.4°
Reaches altitude 10° 07:55:49 10° 205° (SSW) 3,884 9.4 36.2°
Maximum altitude 08:05:22 49° 132° (SE) 2,075 9.0 38.4°
Drops below altitude 10° 08:15:01 10° 61° (ENE) 3,937 10.8 40.7°
Sets 08:18:20 0° 55° (NE) 4,920 11.0 41.4°
